Weather History for KIKK - March, 2012

Change the Weather History Date:

Monday, March 26, 2012

  Actual Average Record
Temperature  
Mean Temperature 46 °F -  
Max Temperature 54 °F 49 °F - (-1)
Min Temperature 39 °F 31 °F - (-1)
Degree Days  
Heating Degree Days 18    
Moisture  
Dew Point 34 °F    
Average Humidity 65    
Maximum Humidity 80    
Minimum Humidity 35    
Precipitation  
Precipitation 0.00 in - - ()
Sea Level Pressure  
Sea Level Pressure 30.28 in    
Wind  
Wind Speed 13 mph (NE)    
Max Wind Speed 21 mph    
Max Gust Speed 28 mph    
Visibility 10 miles    
Events Rain    
Averages and records for this station are not official NWS values.
T = Trace of Precipitation, MM = Missing Value Source: NWS Daily Summary

Daily Weather History Graph

Daily Weather History Graph

Search for Another Location

Airport or City:

Trip Planner

Search our weather history database for the weather conditions in past years. The results will help you decide how hot, cold, wet, or windy it might be!

Date:

Astronomy

Mar. 26, 2012 Rise Set
Actual Time 6:43 AM CDT 7:10 PM CDT
Civil Twilight 6:16 AM CDT 7:38 PM CDT
Nautical Twilight 5:43 AM CDT 8:10 PM CDT
Astronomical Twilight 5:10 AM CDT 8:44 PM CDT
Moon 8:30 AM CDT (3/26) 11:23 PM CDT (3/26)
Length of Visible Light 13h 21m
Length of Day
12h 26m
Waxing Crescent, 15% of the Moon is Illuminated
Mar 26
Waxing Crescent
Mar 30
First Quarter
Apr 6
Full
Apr 13
Last Quarter
Apr 21
New

Hourly Weather History & Observations

Time (CDT) Temp. Windchill Dew Point Humidity Pressure Visibility Wind Dir Wind Speed Gust Speed Precip Events Conditions
12:15 AM 49.3 °F - 43.2 °F 79% 30.14 in 10.0 mi NNE 8.1 mph - N/A   Overcast
12:35 AM 49.1 °F - 42.8 °F 79% 30.14 in 10.0 mi NNE 10.4 mph 18.4 mph N/A   Overcast
12:55 AM 48.4 °F - 41.7 °F 78% 30.15 in 10.0 mi NNE 12.7 mph 17.3 mph N/A   Overcast
1:15 AM 47.5 °F - 41.0 °F 78% 30.16 in 10.0 mi NNE 11.5 mph 21.9 mph N/A   Overcast
1:35 AM 47.3 °F - 40.5 °F 77% 30.17 in 10.0 mi NNE 10.4 mph 19.6 mph N/A   Overcast
1:55 AM 46.2 °F 40.5 °F 39.4 °F 77% 30.18 in 10.0 mi NNE 12.7 mph 18.4 mph N/A   Overcast
2:15 AM 45.5 °F 39.6 °F 39.7 °F 80% 30.18 in 10.0 mi NNE 12.7 mph 19.6 mph N/A   Overcast
2:35 AM 45.3 °F 38.4 °F 39.6 °F 80% 30.19 in 10.0 mi NNE 16.1 mph 23.0 mph N/A   Overcast
2:55 AM 45.1 °F 39.1 °F 39.4 °F 80% 30.19 in 10.0 mi NNE 12.7 mph 20.7 mph N/A   Overcast
3:15 AM 45.0 °F 37.6 °F 38.7 °F 79% 30.19 in 10.0 mi NNE 17.3 mph 24.2 mph N/A   Overcast
3:35 AM 44.1 °F 37.4 °F 37.8 °F 78% 30.20 in 10.0 mi NNE 13.8 mph 23.0 mph N/A   Overcast
3:55 AM 43.3 °F 35.0 °F 37.2 °F 79% 30.21 in 10.0 mi NNE 19.6 mph 25.3 mph N/A   Mostly Cloudy
4:15 AM 43.0 °F 34.5 °F 36.5 °F 78% 30.21 in 10.0 mi NNE 19.6 mph 27.6 mph N/A   Mostly Cloudy
4:35 AM 42.3 °F 35.1 °F 35.8 °F 78% 30.22 in 10.0 mi NNE 13.8 mph 18.4 mph N/A   Overcast
4:55 AM 42.1 °F 34.2 °F 35.8 °F 78% 30.23 in 10.0 mi NNE 16.1 mph 21.9 mph N/A   Overcast
5:15 AM 41.5 °F 34.2 °F 35.8 °F 80% 30.24 in 10.0 mi NNE 13.8 mph 20.7 mph N/A   Overcast
5:35 AM 41.4 °F 32.4 °F 35.6 °F 80% 30.26 in 10.0 mi NNE 19.6 mph 25.3 mph N/A   Overcast
5:55 AM 41.2 °F 33.7 °F 35.1 °F 79% 30.26 in 10.0 mi NNE 13.8 mph 26.5 mph N/A   Overcast
6:15 AM 41.0 °F 33.1 °F 34.7 °F 78% 30.27 in 10.0 mi NNE 15.0 mph 27.6 mph N/A   Overcast
6:35 AM 41.0 °F 32.8 °F 33.8 °F 76% 30.28 in 10.0 mi NNE 16.1 mph 24.2 mph N/A   Overcast
6:55 AM 41.0 °F 31.6 °F 33.3 °F 74% 30.29 in 10.0 mi NNE 20.7 mph 24.2 mph N/A   Overcast
7:15 AM 40.6 °F 33.0 °F 33.8 °F 77% 30.30 in 10.0 mi NNE 13.8 mph 24.2 mph N/A   Overcast
7:35 AM 40.5 °F 33.6 °F 32.7 °F 74% 30.30 in 10.0 mi NE 11.5 mph 25.3 mph N/A   Light Drizzle
7:55 AM 40.1 °F 32.0 °F 32.4 °F 74% 30.31 in 10.0 mi NE 15.0 mph 23.0 mph N/A   Overcast
8:15 AM 40.1 °F 32.0 °F 32.0 °F 73% 30.32 in 10.0 mi NNE 15.0 mph 23.0 mph N/A   Overcast
8:35 AM 40.1 °F 33.6 °F 32.2 °F 73% 30.33 in 10.0 mi NE 10.4 mph 19.6 mph N/A   Overcast
8:55 AM 39.7 °F 31.5 °F 32.0 °F 74% 30.34 in 10.0 mi NNE 15.0 mph 20.7 mph N/A   Overcast
9:15 AM 40.1 °F 32.4 °F 32.0 °F 73% 30.34 in 10.0 mi NNE 13.8 mph - N/A   Overcast
9:35 AM 39.4 °F 31.8 °F 32.0 °F 75% 30.34 in 10.0 mi NE 12.7 mph 21.9 mph N/A Rain Light Rain
9:55 AM 40.1 °F 32.0 °F 32.2 °F 73% 30.34 in 10.0 mi NE 15.0 mph 19.6 mph N/A   Light Drizzle
10:15 AM 41.5 °F 35.0 °F 32.7 °F 71% 30.35 in 10.0 mi NNE 11.5 mph 17.3 mph N/A Rain Light Rain
10:35 AM 42.1 °F 34.5 °F 32.0 °F 67% 30.36 in 10.0 mi NE 15.0 mph 20.7 mph N/A   Mostly Cloudy
10:55 AM 42.8 °F 35.8 °F 32.0 °F 66% 30.36 in 10.0 mi NNE 13.8 mph 17.3 mph N/A   Overcast
11:15 AM 42.8 °F 35.8 °F 31.3 °F 64% 30.35 in 10.0 mi NE 13.8 mph 19.6 mph N/A   Overcast
11:35 AM 43.2 °F 36.2 °F 31.8 °F 64% 30.35 in 10.0 mi NE 13.8 mph 17.3 mph N/A   Mostly Cloudy
11:55 AM 45.1 °F 39.1 °F 31.6 °F 59% 30.35 in 10.0 mi ENE 12.7 mph 17.3 mph N/A   Mostly Cloudy
12:15 PM 46.9 °F - 31.8 °F 56% 30.34 in 10.0 mi NE 12.7 mph - N/A   Scattered Clouds
12:35 PM 47.7 °F - 32.0 °F 55% 30.34 in 10.0 mi NE 12.7 mph 18.4 mph N/A   Clear
12:55 PM 48.9 °F - 32.7 °F 54% 30.34 in 10.0 mi ENE 11.5 mph 17.3 mph N/A   Clear
1:15 PM 50.5 °F - 30.7 °F 47% 30.32 in 10.0 mi ENE 13.8 mph - N/A   Clear
1:35 PM 51.6 °F - 30.2 °F 44% 30.32 in 10.0 mi NE 16.1 mph 20.7 mph N/A   Clear
1:55 PM 52.5 °F - 30.7 °F 43% 30.32 in 10.0 mi ENE 13.8 mph 18.4 mph N/A   Clear
2:15 PM 53.2 °F - 29.8 °F 41% 30.31 in 10.0 mi ENE 12.7 mph 20.7 mph N/A   Scattered Clouds
2:35 PM 53.2 °F - 30.7 °F 42% 30.31 in 10.0 mi NE 15.0 mph - N/A   Scattered Clouds
2:55 PM 52.7 °F - 28.9 °F 40% 30.30 in 10.0 mi ENE 16.1 mph - N/A   Mostly Cloudy
3:15 PM 53.6 °F - 28.8 °F 39% 30.29 in 10.0 mi NE 16.1 mph 20.7 mph N/A   Overcast
3:35 PM 53.4 °F - 28.9 °F 39% 30.29 in 10.0 mi ENE 13.8 mph - N/A   Overcast
3:55 PM 54.9 °F - 28.0 °F 36% 30.29 in 10.0 mi ENE 13.8 mph 17.3 mph N/A   Mostly Cloudy
4:35 PM 54.0 °F - 26.4 °F 35% 30.28 in 10.0 mi ENE 15.0 mph 19.6 mph N/A   Overcast
4:55 PM 52.2 °F - 33.6 °F 49% 30.28 in 10.0 mi NNE 15.0 mph 19.6 mph N/A   Overcast
5:15 PM 50.4 °F - 33.8 °F 53% 30.27 in 10.0 mi NE 15.0 mph - N/A   Mostly Cloudy
5:35 PM 49.5 °F - 34.0 °F 55% 30.27 in 10.0 mi NE 13.8 mph 18.4 mph N/A   Scattered Clouds
5:55 PM 49.3 °F - 33.8 °F 55% 30.27 in 10.0 mi NNE 13.8 mph 19.6 mph N/A   Clear
6:15 PM 48.9 °F - 33.3 °F 55% 30.28 in 10.0 mi NNE 12.7 mph - N/A   Mostly Cloudy
6:35 PM 47.3 °F - 32.5 °F 57% 30.28 in 10.0 mi NNE 10.4 mph - N/A   Overcast
6:55 PM 46.6 °F - 32.4 °F 58% 30.28 in 10.0 mi NE 10.4 mph - N/A   Overcast
7:15 PM 45.7 °F 40.2 °F 32.2 °F 59% 30.26 in 10.0 mi NE 11.5 mph - N/A   Overcast
7:35 PM 44.8 °F 39.9 °F 32.7 °F 63% 30.27 in 10.0 mi NE 9.2 mph - N/A   Scattered Clouds
7:55 PM 44.6 °F 40.7 °F 32.9 °F 64% 30.28 in 10.0 mi NNE 6.9 mph - N/A   Mostly Cloudy
8:15 PM 45.1 °F 41.4 °F 33.6 °F 64% 30.28 in 10.0 mi NE 6.9 mph - N/A   Overcast
8:35 PM 44.4 °F 39.5 °F 33.8 °F 66% 30.28 in 10.0 mi NE 9.2 mph - N/A   Overcast
8:55 PM 43.9 °F 39.3 °F 34.0 °F 68% 30.28 in 10.0 mi NE 8.1 mph - N/A   Mostly Cloudy
9:15 PM 43.7 °F 39.1 °F 34.7 °F 71% 30.29 in 10.0 mi NE 8.1 mph - N/A   Overcast
9:35 PM 43.9 °F 39.3 °F 34.9 °F 71% 30.29 in 10.0 mi NE 8.1 mph - N/A   Overcast
9:55 PM 43.3 °F 38.6 °F 34.9 °F 72% 30.29 in 10.0 mi ENE 8.1 mph - N/A   Mostly Cloudy
10:15 PM 43.7 °F 39.7 °F 34.2 °F 69% 30.29 in 10.0 mi East 6.9 mph - N/A   Scattered Clouds
10:35 PM 45.5 °F 40.3 °F 32.7 °F 61% 30.28 in 10.0 mi East 10.4 mph - N/A   Mostly Cloudy
10:55 PM 45.9 °F 40.4 °F 30.9 °F 56% 30.28 in 10.0 mi ESE 11.5 mph - N/A   Scattered Clouds
11:15 PM 45.0 °F 39.3 °F 31.3 °F 59% 30.28 in 10.0 mi ESE 11.5 mph - N/A   Clear
11:35 PM 45.0 °F 38.5 °F 30.7 °F 57% 30.28 in 10.0 mi ESE 13.8 mph - N/A   Mostly Cloudy
11:55 PM 44.6 °F 37.8 °F 30.6 °F 58% 30.26 in 10.0 mi ESE 15.0 mph - N/A   Overcast